Погода в Бобруйске

Погода в Бобруйске : погода сейчас, прогноз погоды и архив. Всё, что Вы хотите узнать о погоде в Бобруйске!

Хотите узнать прогноз погоды в Бобруйске? Тогда Вам сюда: Погода в Бобруйске

Поиск расширенной информации на нашем сайте:

Другие новости

Новости СМИ2

Главная страница сайта

Новости сайта

02.10.2013

Напоминаем, что на нашем новом сайте вы можете получить высокодетализированные прогнозы погоды по пунктам России, СНГ и мира (включающие важные для авиации метеовеличины, такие как направление и скорость ветра, видимость, явления погоды, количество и форма облачности, нижняя и верхняя граница облачности), а также ознакомиться с разнообразными материалами по авиационной метеорологии и подборкой полезных ссылок на эту тему.

Сайт Метеоцентр.Азия посвящён разработке технологий оптимизации авиаметеорологического обслуживания, включая проектирование и перспективное создание нескольких автоматизированных авиаметеорологических систем:
- система выпуска высокодетальных прогностических карт явлений погоды для нижнего воздушного пространства по России и ближнему зарубежью;
- система верификации прогнозов TAF (выпускаемых синоптиками официальных АМСГ РФ и ближнего зарубежья) и AUTOTAF (выпускаемых сайтом Метеоцентр.Азия) - выявление ошибок, онлайн-сопоставление с фактической погодой METAR, автоматическое внесение коррективов в прогнозы при резком отклонении фактической погоды от прогноза, подсчёт оправдываемости прогнозов по элементам и в целом;
- система обработки, анализа и отображения авиаметеорологической информации для применения провайдерами метеорологической информации.

Рекомендуем: для вашего бизнеса покупка офиса в бц Ринко Плаза Тимура Фрунзе ул., 24

Погода в Бобруйске - сегодня

Время (UTC), дата Ветер
(°,м/с) 
Видим.   Явления Облачность Т
(°С)
Тd
(°С)
f(%) Тe
(°С)
Pmin
(гПа)
dP
(гПа)
Po
(мм)
O2
(г/м3)
Тmin Tmax R s Состояние
почвы
12 22.04.17 290 (З) 9-14{19}  18000 м  {ливн. осадки}  8/8 630 м кучево-дожд. 
[Cb calv]
+8.7 -1.2 50 +6  1001.3  2.4  737  288           
15 22.04.17 290 (З) 10-18{19}  20000 м  {ливн. осадки}  8/5 300 м кучево-дожд., верхняя 
[Cb calv|Ci fib]
+8.7 -1.9 47 +6  1003  1.7  738  288         
18 22.04.17 250 (З) 5{18}  15000 м  {ливн. осадки}  4/3 300 м верхняя 
[Sc|Ci fib]
+6.3 -3.1 51 +4  1004  0.8  739  291    +9.4     
21 22.04.17 270 (З) 12000 м    3/0 средняя 
[Ac trans]
+3.8 -2.3 64 +1  1005.3  1.1  740  294           
00 23.04.17 260 (З) 10 км    ясно 
+1.7 -2.1 76 1005.4  740  296           
03 23.04.17 250 (З) 10 км    ясно 
+0.2 -1.8 86 -2  1005.7  0.2  740  298           
06 23.04.17 250 (З) 15000 м    3/3 600 м 
[Cu hum]
+3.9 -0.3 74 +2  1006.7  1.2  741  294  +0.2         
09 23.04.17 300 (СЗ) 5-10{10}  20000 м    8/8 800 м 
[Cu med, cong]
+9.1 -2 46 +8  1007.1  0.8  741  289           
12 23.04.17 300 (СЗ) 5-10{14}  20000 м    8/8 840 м 
[Cu med, cong]
+9.6 -2.8 42 +8  1007.1  741  289           
15 23.04.17 290 (З) 4{14}  20000 м    8/8 840 м средняя 
[Cu med, cong|Ac trans]
+7.7 -3 47 +6  1007.8  0.5  742  291           
18 23.04.17 тихо ()   20000 м    5/5 300 м 
[Sc]
+3.5 -2.9 63 +4  1009.9  1.8  743  296    +9.8       
21 23.04.17 330 (СЗ) 10 км    ясно 
-1.5 -3.9 84 -2  1011.9  1.7  744  302           
00 24.04.17 230 (ЮЗ) 10 км    ясно 
-1.8 -4.1 84 -1  1011.9  744  302           
03 24.04.17 250 (З) 10 км    ясно 
-3.6 -4.6 93 -3  1012.6  0.4  745  305           
06 24.04.17 270 (З) 20000 м    ясно 
+3.8 -1.8 67 +5  1013.3  1.2  745  296  -3.8         
09 24.04.17 260 (З) 20000 м    8/8 870 м 
[Cu med, cong]
+9.2 -2.9 42 +8  1012.7  -0.1  745  291           
12 24.04.17 260 (З) 5{13}  20000 м    6/6 840 м 
[Cu med, cong]
+9.8 -6 32 +9  1011.9  -0.8  745  290           
15 24.04.17 230 (ЮЗ) 20000 м    8/8 660 м 
[Sc]
+8.2 -4.2 41 +7  1012  745  292           
18 24.04.17 200 (Ю) 2{11}  15000 м    3/0 средняя 
[Ac trans]
+3.5 -0.5 75 +3  1014.1  1.7  746  297    +11       
21 24.04.17 230 (ЮЗ) 10 км    ясно 
+1.2 -1.4 83 +2  1014.8  0.6  746  300           
00 25.04.17 220 (ЮЗ) 10 км    4/0 средняя 
[Ac trans]
+1.7 -0.4 86 +1  1014.8  746  299           
03 25.04.17 210 (ЮЗ) 10 км    5/0 верхняя 
[Ci fib]
+1.1 -1 86 1014.7  -0.1  746  300           
06 25.04.17 200 (Ю) 20000 м    4/0 верхняя 
[Ci fib]
+6.7 -1.2 57 +7  1014.6  0.3  747  294  +0.5         
09 25.04.17 220 (ЮЗ) 5{10}  20000 м    9/0 средняя 
[Ac und]
+10 -0.4 48 +9  1013.9  -0.5  746  290           
12 25.04.17 170 (Ю) 4{11}  20000 м    8/5 600 м верхняя 
[Cu hum|Ci fib]
+14.3 +1.5 42 +14  1011.6  -2  745  285           
Время (UTC), дата Ветер
(°,м/с) 
Видим.   Явления Облачность Т
(°С)
Тd
(°С)
f(%) Тe
(°С)
Pmin
(гПа)
dP
(гПа)
Po
(мм)
O2
(г/м3)
Тmin Tmax R s Состояние
почвы

Для получения пояснительной информации подведите курсор к названию столбца.

ПОГОДА в Бобруйске - архив

Всё, что Вы хотите узнать о погоде в Бобруйске - удобно и подробно!

Выберите нужную дату (начиная с 1 января 2015* года) и нажмите кнопку "Найти".
Будут отображены архивные сводки погоды по пункту Бобруйск, начиная с указанной даты.


Отображать данные в формате CSV (для использования в таблицах Excel)


Внимание! Наш архив погоды предназначен исключительно для личного некоммерческого использования в познавательных целях. Если Вам необходимы официальные справки о состоянии погоды (для производственных, юридических, коммерческих и т.п. целей), обращайтесь в органы Росгидромета.

*Примечание: данная дата относится к архиву по метеостанциям СССР (Россия, СНГ, Балтия).
Архив по метеостанциям Зарубежной Европы и Азии (кроме Китая) хранится 10 дней, по другим регионам земного шара (Китай, Африка, Америка, Австралия, Океания) - 1 день.

Бобруйск - район местоположения метеостанции


Название, широта, долгота, высота метеостанции:
Бобруйск 53.2°ш. 29.2°д. 156 м над ур. моря [Беларусь]

Дополнительная информация

В oтличие oт бoльшинства пoгoдных сайтoв мы публикуем пoдрoбную метеoинфoрмацию в детальнoм прoфессиoнальнoм фoрмате.

Характеристики температуры и влажнoсти вoздуха измеряются на высoте 2 м в тени вдали oт зданий и деревьев.
Скoрoсть ветра измеряется на высoте 10 м (на урoвне рoста челoвека скoрoсть ветра ниже в 1.5-2 раза). Если метеoстанция нахoдится в гoрoде или в лесу, тo скoрoсть ветра занижена на 2-4 м/с пo сравнению с oткрытым местoм. Скoрoсть ветра над акватoриями крупных рек и oзёр, а также на вершинах хoлмoв на 2-5 м/с выше, чем в oбычных услoвиях.
Атмoсфернoе давление в разных тoчках местнoсти мoжет значительнo oтличаться oт давления на метеoстанции, в зависимoсти oт услoвий рельефа (при пoдъёме на 10 м давление пoнижается примернo на 1 мм рт.ст.).